[[{"header":{"parameterUnit":"m.s-1","parameterCategory":1,"la1":30.2991,"la2":30.254,"lo1":-89.0895,"lo2":-89.0444,"dy":0.0017,"dx":0.0017,"nx":28,"ny":28,"refTime":"2024-06-11T03:00:00:Z","depth":0,"parameterNumber":2,"parameterNumberName":"U-component_of_WINDS"},"data":[0,0,0,0,0,0,0,0,0,0,0,0,0,0,0,0,0,0,0,0,0,0,0,0,0,0,0,0,0,0,0,0,0,0,0,0,0,0,0,0,0,0,0,0,0,0,0,0,0,0,0,0,0,0,0,0,0,0,-3.6233,-3.6232,0,-3.6142,-3.6141,-3.614,-3.5986,-3.5983,-3.598,-3.5978,-3.5886,-3.5886,-3.5886,0,0,0,0,0,0,0,0,0,0,0,0,0,-3.6277,-3.6277,-3.6233,-3.6232,-3.6231,-3.6142,-3.6141,-3.614,-3.5987,-3.5983,-3.598,-3.5976,-3.5886,-3.5886,-3.5886,0,0,0,0,0,0,0,0,0,0,0,0,0,-3.6229,-3.6277,-3.6234,-3.6144,-3.6135,-3.6143,-3.6141,-3.614,-3.5987,-3.5983,-3.5979,-3.5975,-3.5886,-3.5886,-3.5886,-3.5975,0,0,-3.5887,-3.5888,0,0,0,0,0,0,0,0,-3.6232,-3.6228,-3.6158,-3.615,-3.614,-3.6071,-3.6123,-3.6084,-3.5988,-3.6043,-3.5977,-3.5972,-3.5951,-3.5946,-3.5938,-3.5971,-3.5967,-3.5887,-3.5888,-3.5888,-3.5888,0,0,0,0,0,0,0,-3.6236,-3.6231,-3.6197,-3.6157,-3.6146,-3.6109,-3.6097,-3.6115,-3.6023,-3.6038,-3.6027,-3.6018,-3.5945,-3.5938,-3.5935,-3.5965,-3.5887,-3.5888,-3.5888,-3.5888,-3.6065,-3.6069,0,0,0,0,0,0,-3.6252,-3.6235,-3.62,-3.6195,-3.6176,-3.6112,-3.6099,-3.6098,-3.6022,-3.6006,-3.6022,-3.6011,-3.594,-3.5935,-3.5931,-3.6028,-3.5888,-3.5888,-3.5888,-3.606,-3.6066,-3.6071,0,0,0,0,0,0,-3.6254,-3.625,-3.6204,-3.6212,-3.6203,-3.6116,-3.6115,-3.6098,-3.6091,-3.6009,-3.5992,-3.6031,-3.5936,-3.5931,-3.5965,-3.6022,-3.5888,-3.5889,-3.6055,-3.6062,-3.6068,-3.6223,0,0,0,0,0,0,-3.6256,-3.6252,-3.6284,-3.6213,-3.6203,-3.6239,-3.6119,-3.6099,-3.6091,-3.6077,-3.6014,-3.5999,-3.5932,-3.5965,-3.5965,-3.6021,-3.5889,-3.6049,-3.6058,-3.6066,-3.6213,-3.6235,-3.6253,0,0,0,0,0,-3.6258,-3.6332,-3.6286,-3.6283,-3.6241,-3.6242,-3.6236,-3.6157,-3.6097,-3.6128,-3.6077,-3.6001,-3.6017,-3.597,-3.5969,-3.6025,-3.6045,-3.6056,-3.6065,-3.6204,-3.623,-3.6253,0,0,0,0,0,0,-3.6411,-3.6321,-3.6269,-3.6323,-3.6292,-3.6216,-3.6253,-3.6188,-3.6174,-3.6161,-3.6064,-3.6051,-3.6098,-3.6065,-3.6014,-3.6106,-3.602,-3.603,-3.6125,-3.615,-3.617,-3.6175,-3.5889,0,0,0,0,0,-3.6452,-3.646,-3.6381,-3.6435,-3.6422,-3.6342,-3.6339,-3.6281,-3.6245,-3.6231,-3.6181,-3.615,-3.6147,-3.6147,-3.6141,-3.6209,-3.6192,-3.6247,-3.6268,-3.6285,-3.6294,-3.6326,-3.6349,-3.6104,-3.6104,-3.6103,0,0,-3.6534,-3.6486,-3.6497,-3.6465,-3.6434,-3.6445,-3.6331,-3.6347,-3.6354,-3.6233,-3.6261,-3.6225,-3.6183,-3.6234,-3.6255,-3.6209,-3.6358,-3.6298,-3.6312,-3.6311,-3.6339,-3.6362,-3.6383,-3.611,-3.6109,-3.6108,0,0,-3.669,-3.6655,-3.6696,-3.6667,-3.6622,-3.6568,-3.6578,-3.6513,-3.6484,-3.6511,-3.642,-3.6428,-3.6427,-3.64,-3.6386,-3.6535,-3.6464,-3.6536,-3.6641,-3.6673,-3.6692,-3.6709,-3.6759,-3.6779,-3.6546,-3.6546,-3.6546,0,-3.6798,-3.681,-3.6726,-3.6747,-3.6736,-3.6628,-3.6668,-3.6645,-3.6601,-3.6595,-3.6545,-3.654,-3.6505,-3.6547,-3.6584,-3.6578,-3.6585,-3.654,-3.6697,-3.6712,-3.6726,-3.6773,-3.6793,-3.6555,-3.6554,-3.6553,-3.6552,0,-3.6944,-3.6954,-3.6993,-3.6952,-3.6945,-3.6977,-3.6898,-3.6902,-3.6846,-3.6798,-3.6827,-3.6781,-3.6762,-3.6769,-3.6715,-3.6805,-3.6777,-3.6714,-3.6624,-3.676,-3.6802,-3.682,-3.6567,-3.6564,-3.6562,-3.6559,0,0,-3.719,-3.7103,-3.7118,-3.7098,-3.7041,-3.7047,-3.7075,-3.7057,-3.7061,-3.7035,-3.7055,-3.7057,-3.6997,-3.6982,-3.6925,-3.6954,-3.7072,-3.6886,-3.6883,-3.692,-3.7166,-3.7211,-3.7233,-3.7027,-3.703,-3.7032,-3.7168,0,-3.733,-3.737,-3.7296,-3.7354,-3.7362,-3.7261,-3.7285,-3.7253,-3.721,-3.721,-3.7163,-3.7165,-3.7088,-3.7078,-3.7103,-3.7052,-3.7119,-3.7042,-3.7042,-3.7043,-3.7052,-3.7256,-3.7303,-3.7433,-3.7184,-3.7187,-3.7189,0,-3.7498,-3.748,-3.7538,-3.7478,-3.7478,-3.7501,-3.7478,-3.7481,-3.7444,-3.741,-3.7395,-3.7327,-3.7349,-3.7266,-3.7296,-3.7245,-3.7242,-3.7218,-3.7221,-3.7214,-3.7122,-3.7252,-3.7473,-3.7491,-3.7215,-3.7213,-3.7211,0,-3.7667,-3.7658,-3.7691,-3.7678,-3.7609,-3.7627,-3.76,-3.7558,-3.7552,-3.7533,-3.7528,-3.7513,-3.7504,-3.7495,-3.7424,-3.7371,-3.7462,-3.7373,-3.7433,-3.7435,-3.7453,-3.7452,-3.7674,-3.7459,-3.7459,-3.7458,-3.7458,0,-3.7829,-3.7868,-3.7766,-3.7786,-3.7827,-3.7744,-3.7787,-3.7749,-3.7714,-3.7725,-3.7639,-3.7651,-3.756,-3.7563,-3.7509,-3.7541,-3.7539,-3.7511,-3.7495,-3.7516,-3.7519,-3.7509,-3.7497,-3.7463,-3.7462,-3.7461,-3.746,0,-3.8023,-3.7956,-3.7985,-3.7919,-3.7903,-3.7936,-3.7879,-3.7895,-3.7848,-3.7863,-3.7862,-3.7788,-3.7787,-3.7718,-3.7703,-3.7666,-3.7719,-3.7689,-3.7731,-3.772,-3.7783,-3.7777,-3.8002,-3.8027,-3.7801,-3.7803,-3.7805,0,-3.8128,-3.8155,-3.8092,-3.8093,-3.807,-3.8074,-3.8067,-3.7988,-3.7984,-3.7945,-3.7966,-3.7958,-3.7947,-3.795,-3.7895,-3.7883,-3.7849,-3.793,-3.7847,-3.7867,-3.7846,-3.7844,-3.7845,-3.7946,-3.7949,-3.7951,-3.7953,0,-3.8321,-3.8287,-3.828,-3.8264,-3.8258,-3.8241,-3.8218,-3.8225,-3.8138,-3.8139,-3.8137,-3.8129,-3.8114,-3.8106,-3.8085,-3.8056,-3.799,-3.7981,-3.7993,-3.8012,-3.8034,-3.8019,-3.7775,-3.7974,-3.7972,-3.797,-3.7969,-3.7968,-3.847,-3.8489,-3.8448,-3.8444,-3.8419,-3.8401,-3.8412,-3.8367,-3.8364,-3.8344,-3.8299,-3.8304,-3.8267,-3.8231,-3.8209,-3.8212,-3.8171,-3.8191,-3.8195,-3.8199,-3.821,-3.8038,-3.8209,-3.8208,-3.8207,-3.8207,-3.8206,0,-3.8655,-3.8624,-3.8622,-3.8593,-3.859,-3.853,-3.8503,-3.8504,-3.851,-3.8481,-3.8472,-3.847,-3.8464,-3.8409,-3.8396,-3.8409,-3.8378,-3.8408,-3.8404,-3.8398,-3.8249,-3.8237,-3.8433,-3.8433,-3.8433,-3.8433,-3.8433,-3.8433,-3.875,-3.8779,-3.8741,-3.8758,-3.8727,-3.8731,-3.872,-3.8702,-3.8679,-3.868,-3.8674,-3.8639,-3.86,-3.8584,-3.8575,-3.8559,-3.8557,-3.8596,-3.857,-3.8431,-3.8409,-3.8388,-3.8376,-3.8598,-3.8598,-3.8718,-3.8719,-3.872]},{"header":{"parameterUnit":"m.s-1","parameterCategory":1,"la1":30.2991,"la2":30.254,"lo1":-89.0895,"lo2":-89.0444,"dy":0.0017,"dx":0.0017,"nx":28,"ny":28,"refTime":"2024-06-11T03:00:00:Z","depth":0,"parameterNumber":3,"parameterNumberName":"V-component_of_WINDS"},"data":[0,0,0,0,0,0,0,0,0,0,0,0,0,0,0,0,0,0,0,0,0,0,0,0,0,0,0,0,0,0,0,0,0,0,0,0,0,0,0,0,0,0,0,0,0,0,0,0,0,0,0,0,0,0,0,0,0,0,-2.0011,-2.0013,0,-2.0142,-2.0143,-2.0144,-2.0204,-2.0203,-2.0203,-2.0203,-2.0335,-2.0338,-2.0342,0,0,0,0,0,0,0,0,0,0,0,0,0,-1.9811,-1.9814,-2.0011,-2.0013,-2.0014,-2.0141,-2.0143,-2.0145,-2.0204,-2.0203,-2.0203,-2.0203,-2.0334,-2.0338,-2.0342,0,0,0,0,0,0,0,0,0,0,0,0,0,-1.9915,-1.9815,-2.0011,-2.0059,-2.0065,-2.0141,-2.0143,-2.0145,-2.0204,-2.0203,-2.0203,-2.0203,-2.0332,-2.0337,-2.0343,-2.038,0,0,-2.0359,-2.0362,0,0,0,0,0,0,0,0,-1.9909,-1.9922,-2.005,-2.0056,-2.0062,-2.0156,-2.0121,-2.0224,-2.0204,-2.0151,-2.0203,-2.0203,-2.0275,-2.0285,-2.031,-2.0387,-2.0392,-2.036,-2.0363,-2.0366,-2.0367,0,0,0,0,0,0,0,-1.9902,-1.9917,-2.0063,-2.0052,-2.0059,-2.0073,-2.0088,-2.0141,-2.0213,-2.0155,-2.016,-2.0175,-2.0279,-2.0305,-2.0314,-2.0394,-2.036,-2.0365,-2.0368,-2.037,-2.0507,-2.0507,0,0,0,0,0,0,-1.9887,-1.991,-2.0059,-2.0067,-1.9984,-2.0077,-2.0093,-2.0126,-2.0212,-2.0225,-2.0175,-2.0177,-2.0296,-2.0307,-2.0319,-2.0368,-2.0366,-2.0371,-2.0374,-2.0507,-2.0507,-2.0507,0,0,0,0,0,0,-1.9882,-1.9899,-2.0053,-1.999,-2.0011,-2.0081,-2.0117,-2.0129,-2.0155,-2.0227,-2.024,-2.0189,-2.0296,-2.0311,-2.0365,-2.0374,-2.0373,-2.0378,-2.0506,-2.0507,-2.0507,-2.0467,0,0,0,0,0,0,-1.9876,-1.9897,-1.9913,-1.999,-2.0014,-2.0098,-2.0118,-2.0132,-2.0165,-2.0169,-2.0243,-2.0255,-2.0297,-2.0356,-2.037,-2.0381,-2.0382,-2.0506,-2.0506,-2.0507,-2.0468,-2.0466,-2.0465,0,0,0,0,0,-1.9869,-1.9897,-1.9914,-1.9931,-2.0035,-2.0098,-2.0112,-2.016,-2.0165,-2.0181,-2.0227,-2.0253,-2.037,-2.0361,-2.0377,-2.039,-2.0505,-2.0506,-2.0507,-2.0469,-2.0467,-2.0465,0,0,0,0,0,0,-1.9819,-1.9907,-1.9928,-1.9981,-2.0031,-2.0108,-2.013,-2.0156,-2.0206,-2.0207,-2.0264,-2.028,-2.0329,-2.0365,-2.0353,-2.043,-2.044,-2.0444,-2.0405,-2.0404,-2.0402,-2.0393,-2.0387,0,0,0,0,0,-1.9814,-1.9859,-1.9933,-1.9973,-1.9998,-2.0059,-2.0088,-2.0121,-2.0175,-2.0197,-2.0247,-2.0298,-2.0346,-2.0377,-2.0426,-2.0473,-2.049,-2.049,-2.0488,-2.0487,-2.049,-2.0517,-2.0518,-2.051,-2.051,-2.051,0,0,-1.9804,-1.9858,-1.9883,-1.9964,-2.0008,-2.0052,-2.0077,-2.0123,-2.0156,-2.0204,-2.0258,-2.0295,-2.0356,-2.0407,-2.0432,-2.0438,-2.0495,-2.0488,-2.0486,-2.049,-2.0518,-2.0518,-2.0519,-2.0511,-2.0511,-2.051,0,0,-1.981,-1.9855,-1.9893,-1.9936,-2.0001,-2.0041,-2.005,-2.0123,-2.015,-2.0205,-2.0241,-2.0281,-2.0363,-2.0405,-2.0437,-2.0457,-2.0483,-2.0471,-2.0463,-2.0489,-2.0489,-2.049,-2.0497,-2.0499,-2.0473,-2.0473,-2.0473,0,-1.979,-1.9859,-1.9909,-1.9953,-1.9988,-2.0033,-2.0071,-2.011,-2.0187,-2.0209,-2.0216,-2.0319,-2.0364,-2.0425,-2.0429,-2.0454,-2.0465,-2.0463,-2.0485,-2.0487,-2.0488,-2.0495,-2.0498,-2.0472,-2.0472,-2.0472,-2.0472,0,-1.983,-1.9877,-1.99,-1.9974,-2.0011,-2.0051,-2.0107,-2.0138,-2.0167,-2.0206,-2.0261,-2.0316,-2.0376,-2.0392,-2.0421,-2.0457,-2.0459,-2.0474,-2.0485,-2.0486,-2.0494,-2.0497,-2.0469,-2.047,-2.047,-2.0471,0,0,-1.9809,-1.991,-1.9917,-1.9951,-2.0025,-2.0062,-2.0104,-2.0164,-2.0189,-2.024,-2.0277,-2.0344,-2.0359,-2.0395,-2.0429,-2.0451,-2.0463,-2.0464,-2.0466,-2.0462,-2.0506,-2.0494,-2.0497,-2.048,-2.0481,-2.0481,-2.0501,0,-1.9825,-1.9904,-1.995,-2.0009,-2.0053,-2.0096,-2.0133,-2.0182,-2.0219,-2.0261,-2.0302,-2.035,-2.0365,-2.0387,-2.0412,-2.0456,-2.0473,-2.0456,-2.0514,-2.0516,-2.0498,-2.0501,-2.0489,-2.0505,-2.0504,-2.0505,-2.0505,0,-1.9854,-1.9905,-1.9969,-2.0038,-2.0058,-2.009,-2.0147,-2.0187,-2.0243,-2.0269,-2.0308,-2.0342,-2.0387,-2.0393,-2.0456,-2.0444,-2.047,-2.0495,-2.0497,-2.0505,-2.0511,-2.0509,-2.0511,-2.0513,-2.051,-2.051,-2.051,0,-1.9832,-1.9916,-1.9965,-1.9993,-2.0074,-2.0096,-2.0131,-2.0186,-2.0219,-2.0269,-2.029,-2.0344,-2.0374,-2.0414,-2.0461,-2.0461,-2.0519,-2.053,-2.0542,-2.054,-2.0553,-2.0551,-2.0559,-2.0569,-2.0568,-2.0568,-2.0568,0,-1.9845,-1.9883,-1.9957,-1.9987,-2.0029,-2.0081,-2.0122,-2.016,-2.0209,-2.0247,-2.0287,-2.0321,-2.0381,-2.0422,-2.0459,-2.0505,-2.0518,-2.054,-2.0549,-2.0537,-2.0534,-2.0555,-2.0555,-2.0569,-2.0569,-2.0569,-2.0569,0,-1.9829,-1.988,-1.9936,-2.0008,-2.0027,-2.0055,-2.0117,-2.0147,-2.0186,-2.0234,-2.0248,-2.0309,-2.036,-2.041,-2.0478,-2.0503,-2.0548,-2.0561,-2.053,-2.0535,-2.0544,-2.0543,-2.0567,-2.0572,-2.0577,-2.0577,-2.0577,0,-1.9834,-1.9864,-1.9939,-1.9967,-2.0002,-2.0047,-2.008,-2.0131,-2.0164,-2.023,-2.0252,-2.0306,-2.0352,-2.043,-2.0481,-2.0533,-2.0547,-2.0552,-2.0555,-2.0541,-2.0547,-2.0545,-2.0548,-2.055,-2.055,-2.055,-2.0549,0,-1.9838,-1.9861,-1.9908,-1.9963,-2.0002,-2.0048,-2.0095,-2.0115,-2.0176,-2.0211,-2.0263,-2.0299,-2.0368,-2.0421,-2.0479,-2.0514,-2.0542,-2.0548,-2.0553,-2.0541,-2.0522,-2.0533,-2.0526,-2.0547,-2.0547,-2.0548,-2.0548,-2.0548,-1.9833,-1.9861,-1.9918,-1.9969,-2.001,-2.0052,-2.0085,-2.0128,-2.0173,-2.0234,-2.0261,-2.0314,-2.0368,-2.0449,-2.0483,-2.0525,-2.0532,-2.054,-2.0542,-2.0543,-2.0541,-2.0515,-2.0535,-2.0535,-2.0536,-2.0536,-2.0536,0,-1.9839,-1.9878,-1.9923,-1.9988,-2.0028,-2.005,-2.0103,-2.0135,-2.0181,-2.0229,-2.0273,-2.0333,-2.0384,-2.0438,-2.0492,-2.0515,-2.0529,-2.0528,-2.0527,-2.0534,-2.0531,-2.0521,-2.0515,-2.0515,-2.0515,-2.0515,-2.0515,-2.0515,-1.9847,-1.9896,-1.9926,-1.9995,-2.0034,-2.0086,-2.0114,-2.0154,-2.0193,-2.0258,-2.0301,-2.0336,-2.0386,-2.0444,-2.0492,-2.0506,-2.0524,-2.0519,-2.0537,-2.0533,-2.0534,-2.0536,-2.0527,-2.0522,-2.0522,-2.0537,-2.0537,-2.0537]}]]